Weather History for KDYT - August, 2013

Change the Weather History Date:

Saturday, August 17, 2013

  Actual Average Record
Temperature  
Mean Temperature 70 °F -  
Max Temperature 82 °F 74 °F 91 °F (1961)
Min Temperature 57 °F 55 °F 34 °F (1963)
Cooling Degree Days 4    
Growing Degree Days 20 (Base 50)    
Moisture  
Dew Point 56 °F    
Average Humidity 61    
Maximum Humidity 88    
Minimum Humidity 37    
Precipitation  
Precipitation 0.00 in - - ()
Sea Level Pressure  
Sea Level Pressure 30.13 in    
Wind  
Wind Speed 11 mph (SSW)    
Max Wind Speed 21 mph    
Max Gust Speed 26 mph    
Visibility 10 miles    
Events      
Averages and records for this station are not official NWS values.
T = Trace of Precipitation, MM = Missing Value Source: NWS Daily Summary

Daily Weather History Graph

Daily Weather History Graph

Search for Another Location

Airport or City:

Trip Planner

Search our weather history database for the weather conditions in past years. The results will help you decide how hot, cold, wet, or windy it might be!

Date:

Astronomy

Aug. 17, 2013 Rise Set
Actual Time 6:08 AM CDT 8:14 PM CDT
Civil Twilight 5:36 AM CDT 8:47 PM CDT
Nautical Twilight 4:55 AM CDT 9:27 PM CDT
Astronomical Twilight 4:09 AM CDT 10:12 PM CDT
Moon 5:36 PM CDT (8/17) 2:05 AM CDT (8/17)
Length of Visible Light 15h 11m
Length of Day
14h 05m
Waxing Gibbous, 84% of the Moon is Illuminated
Aug 17
Waxing Gibbous
Aug 20
Full
Aug 28
Last Quarter
Sep 5
New
Sep 12
First Quarter

Hourly Weather History & Observations

Time (CDT) Temp. Heat Index Dew Point Humidity Pressure Visibility Wind Dir Wind Speed Gust Speed Precip Events Conditions
12:13 AM 66.2 °F - 59.0 °F 78% 30.15 in 10.0 mi SSW 8.1 mph - N/A   Clear
12:33 AM 64.4 °F - 57.2 °F 77% 30.15 in 10.0 mi SSW 9.2 mph - N/A   Clear
12:53 AM 64.4 °F - 57.2 °F 77% 30.16 in 10.0 mi SSW 8.1 mph - N/A   Clear
1:14 AM 64.4 °F - 57.2 °F 77% 30.16 in 10.0 mi SSW 8.1 mph - N/A   Clear
1:33 AM 64.4 °F - 57.2 °F 77% 30.16 in 10.0 mi SSW 9.2 mph - N/A   Clear
1:53 AM 62.6 °F - 57.2 °F 82% 30.16 in 10.0 mi SSW 8.1 mph - N/A   Clear
2:14 AM 62.6 °F - 57.2 °F 82% 30.16 in 10.0 mi SSW 9.2 mph - N/A   Clear
2:33 AM 62.6 °F - 57.2 °F 82% 30.16 in 10.0 mi SSW 9.2 mph - N/A   Clear
2:53 AM 62.6 °F - 57.2 °F 82% 30.16 in 10.0 mi SSW 9.2 mph - N/A   Clear
3:14 AM 62.6 °F - 55.4 °F 77% 30.16 in 10.0 mi SSW 9.2 mph - N/A   Clear
3:33 AM 62.6 °F - 55.4 °F 77% 30.16 in 10.0 mi SSW 9.2 mph - N/A   Clear
3:53 AM 60.8 °F - 55.4 °F 82% 30.16 in 10.0 mi SSW 6.9 mph - N/A   Clear
4:14 AM 62.6 °F - 55.4 °F 77% 30.16 in 10.0 mi SSW 9.2 mph - N/A   Clear
4:33 AM 62.6 °F - 55.4 °F 77% 30.16 in 10.0 mi SSW 11.5 mph - N/A   Clear
4:53 AM 60.8 °F - 55.4 °F 82% 30.16 in 10.0 mi SSW 8.1 mph - N/A   Clear
5:14 AM 60.8 °F - 55.4 °F 82% 30.17 in 10.0 mi SSW 9.2 mph - N/A   Clear
5:33 AM 59.0 °F - 55.4 °F 88% 30.17 in 10.0 mi SSW 8.1 mph - N/A   Clear
5:53 AM 59.0 °F - 55.4 °F 88% 30.17 in 10.0 mi SW 8.1 mph - N/A   Clear
6:14 AM 59.0 °F - 53.6 °F 82% 30.17 in 10.0 mi SW 6.9 mph - N/A   Clear
6:33 AM 59.0 °F - 53.6 °F 82% 30.17 in 10.0 mi SSW 8.1 mph - N/A   Clear
6:53 AM 57.2 °F - 53.6 °F 88% 30.18 in 10.0 mi SW 8.1 mph - N/A   Clear
7:14 AM 59.0 °F - 53.6 °F 82% 30.18 in 10.0 mi SW 8.1 mph - N/A   Clear
7:33 AM 60.8 °F - 55.4 °F 82% 30.18 in 10.0 mi SW 6.9 mph - N/A   Clear
7:53 AM 60.8 °F - 55.4 °F 82% 30.18 in 10.0 mi SW 9.2 mph - N/A   Clear
8:14 AM 62.6 °F - 55.4 °F 77% 30.18 in 10.0 mi SW 9.2 mph - N/A   Clear
8:33 AM 64.4 °F - 57.2 °F 77% 30.18 in 10.0 mi SW 8.1 mph - N/A   Clear
8:54 AM 66.2 °F - 57.2 °F 73% 30.18 in 10.0 mi SSW 10.4 mph - N/A   Clear
9:14 AM 66.2 °F - 57.2 °F 73% 30.18 in 10.0 mi SW 10.4 mph - N/A   Clear
9:33 AM 69.8 °F - 57.2 °F 64% 30.18 in 10.0 mi SSW 9.2 mph - N/A   Clear
9:54 AM 71.6 °F - 57.2 °F 60% 30.17 in 10.0 mi SW 11.5 mph - N/A   Clear
10:13 AM 73.4 °F - 59.0 °F 61% 30.17 in 10.0 mi SW 8.1 mph - N/A   Clear
10:33 AM 73.4 °F - 57.2 °F 57% 30.16 in 10.0 mi SW 10.4 mph - N/A   Clear
10:54 AM 75.2 °F - 57.2 °F 53% 30.16 in 10.0 mi SW 13.8 mph 21.9 mph N/A   Clear
11:13 AM 77.0 °F - 57.2 °F 50% 30.16 in 10.0 mi SSW 12.7 mph - N/A   Clear
11:33 AM 77.0 °F - 55.4 °F 47% 30.15 in 10.0 mi SW 19.6 mph 24.2 mph N/A   Scattered Clouds
11:54 AM 78.8 °F - 55.4 °F 44% 30.15 in 10.0 mi SW 20.7 mph - N/A   Scattered Clouds
12:13 PM 78.8 °F - 55.4 °F 44% 30.15 in 10.0 mi SSW 18.4 mph 21.9 mph N/A   Scattered Clouds
12:33 PM 78.8 °F - 55.4 °F 44% 30.14 in 10.0 mi SW 17.3 mph 24.2 mph N/A   Clear
12:54 PM 78.8 °F - 55.4 °F 44% 30.13 in 10.0 mi SSW 13.8 mph - N/A   Clear
1:13 PM 78.8 °F - 53.6 °F 42% 30.13 in 10.0 mi WSW 17.3 mph 21.9 mph N/A   Clear
1:33 PM 80.6 °F 80.5 °F 55.4 °F 42% 30.12 in 10.0 mi South 18.4 mph 21.9 mph N/A   Clear
1:54 PM 80.6 °F 80.3 °F 53.6 °F 39% 30.12 in 10.0 mi SSW 19.6 mph 25.3 mph N/A   Clear
2:13 PM 80.6 °F 80.3 °F 53.6 °F 39% 30.11 in 10.0 mi SSW 12.7 mph 25.3 mph N/A   Clear
2:33 PM 80.6 °F 80.5 °F 55.4 °F 42% 30.10 in 10.0 mi SSW 18.4 mph 21.9 mph N/A   Clear
2:54 PM 80.6 °F - 51.8 °F 37% 30.10 in 10.0 mi SSW 17.3 mph 26.5 mph N/A   Clear
3:13 PM 82.4 °F 81.4 °F 53.6 °F 37% 30.10 in 10.0 mi SW 15.0 mph 21.9 mph N/A   Clear
3:33 PM 82.4 °F 81.4 °F 53.6 °F 37% 30.09 in 10.0 mi South 18.4 mph 21.9 mph N/A   Clear
3:54 PM 82.4 °F 81.4 °F 53.6 °F 37% 30.08 in 10.0 mi SSW 17.3 mph 23.0 mph N/A   Clear
4:13 PM 82.4 °F 81.4 °F 53.6 °F 37% 30.08 in 10.0 mi SW 17.3 mph 21.9 mph N/A   Clear
4:33 PM 82.4 °F 81.7 °F 55.4 °F 39% 30.08 in 10.0 mi SW 13.8 mph - N/A   Clear
4:54 PM 82.4 °F 81.7 °F 55.4 °F 39% 30.07 in 10.0 mi SW 18.4 mph 24.2 mph N/A   Clear
5:13 PM 82.4 °F 81.4 °F 53.6 °F 37% 30.07 in 10.0 mi SW 17.3 mph 21.9 mph N/A   Clear
5:34 PM 82.4 °F 81.4 °F 53.6 °F 37% 30.07 in 10.0 mi SW 16.1 mph 25.3 mph N/A   Clear
5:53 PM 80.6 °F 80.3 °F 53.6 °F 39% 30.06 in 10.0 mi SW 19.6 mph 25.3 mph N/A   Clear
6:14 PM 80.6 °F 80.5 °F 55.4 °F 42% 30.07 in 10.0 mi SW 16.1 mph - N/A   Clear
6:33 PM 80.6 °F 80.3 °F 53.6 °F 39% 30.07 in 10.0 mi SW 17.3 mph 23.0 mph N/A   Clear
6:53 PM 78.8 °F - 55.4 °F 44% 30.07 in 10.0 mi SW 16.1 mph - N/A   Clear
7:14 PM 78.8 °F - 53.6 °F 42% 30.07 in 10.0 mi SW 15.0 mph - N/A   Clear
7:33 PM 78.8 °F - 55.4 °F 44% 30.07 in 10.0 mi SW 12.7 mph - N/A   Clear
7:53 PM 77.0 °F - 55.4 °F 47% 30.07 in 10.0 mi SW 9.2 mph - N/A   Clear
8:14 PM 75.2 °F - 57.2 °F 53% 30.07 in 10.0 mi SSW 10.4 mph - N/A   Clear
8:33 PM 73.4 °F - 57.2 °F 57% 30.07 in 10.0 mi South 11.5 mph - N/A   Clear
8:53 PM 73.4 °F - 59.0 °F 61% 30.07 in 10.0 mi South 8.1 mph - N/A   Clear
9:14 PM 71.6 °F - 59.0 °F 64% 30.08 in 10.0 mi South 9.2 mph - N/A   Clear
9:33 PM 71.6 °F - 57.2 °F 60% 30.08 in 10.0 mi South 10.4 mph - N/A   Clear
9:53 PM 71.6 °F - 57.2 °F 60% 30.08 in 10.0 mi South 8.1 mph - N/A   Clear
10:14 PM 69.8 °F - 57.2 °F 64% 30.08 in 10.0 mi SSW 4.6 mph - N/A   Clear
10:33 PM 68.0 °F - 57.2 °F 68% 30.08 in 10.0 mi SW 5.8 mph - N/A   Clear
10:53 PM 66.2 °F - 57.2 °F 73% 30.08 in 10.0 mi SW 4.6 mph - N/A   Clear
11:14 PM 66.2 °F - 57.2 °F 73% 30.08 in 10.0 mi SW 5.8 mph - N/A   Clear
11:33 PM 66.2 °F - 57.2 °F 73% 30.08 in 10.0 mi SW 5.8 mph - N/A   Clear
11:53 PM 66.2 °F - 57.2 °F 73% 30.08 in 10.0 mi SW 6.9 mph - N/A   Clear